Location: Mapua
(41.2500°S, 173.1000°E)
Time: 14:38:21
(UTC+12:00)

N. Korean satellite - Visible Passes

Search period start: 26 May 2018 00:00
Search period end: 05 June 2018 00:00
Orbit: 458 x 513 km, 97.2° (Epoch: 24 May)

Date Brightness Start Highest point End Pass type
(mag) Time Alt. Az. Time Alt. Az. Time Alt. Az.
26 May 9.7 05:08:40 10° ENE 05:10:53 15° ESE 05:13:05 10° SSE visible
26 May 7.2 06:40:25 10° NNW 06:43:59 39° W 06:47:37 10° SSW visible
26 May 8.2 18:10:20 16° E 18:10:52 17° E 18:13:16 10° NE visible
26 May 8.5 19:44:44 28° W 19:44:44 28° W 19:47:33 10° NW visible
27 May 6.6 06:16:09 10° N 06:19:56 82° WNW 06:23:47 10° SSW visible
27 May 7.1 19:20:33 59° W 19:20:33 59° W 19:24:00 10° NNW visible
28 May 7.6 05:52:18 10° NNE 05:55:58 48° ESE 05:59:41 10° S visible
28 May 6.5 18:56:22 63° E 18:56:29 64° E 19:00:01 10° N visible
29 May 8.9 05:28:56 10° NE 05:32:05 25° ESE 05:35:16 10° SSE visible
29 May 8.0 07:02:30 10° NW 07:05:29 22° W 07:08:30 10° SW visible
29 May 7.4 18:32:10 30° E 18:32:23 30° E 18:35:33 10° NNE visible
29 May 9.6 20:06:33 15° W 20:06:33 15° W 20:07:55 10° WNW visible
30 May 9.7 05:06:14 10° E 05:08:15 14° ESE 05:10:19 10° SSE visible
30 May 7.1 06:37:45 10° N 06:41:21 42° W 06:45:01 10° SSW visible
30 May 8.2 18:07:57 15° E 18:08:11 15° E 18:10:23 10° NE visible
30 May 8.5 19:42:21 29° W 19:42:21 29° W 19:44:55 10° NW visible
31 May 6.6 06:13:30 10° NNE 06:17:19 87° W 06:21:09 10° SSW visible
31 May 7.0 19:18:08 60° WNW 19:18:08 60° WNW 19:21:20 10° NNW visible
01 Jun 7.8 05:49:42 10° NNE 05:53:20 45° ESE 05:57:00 10° S visible
01 Jun 6.5 18:53:54 58° ENE 18:53:54 58° ENE 18:57:16 10° N visible
02 Jun 9.0 05:26:22 10° NE 05:29:26 24° ESE 05:32:32 10° SSE visible
02 Jun 7.9 06:59:45 10° NNW 07:02:49 23° W 07:05:54 10° SW visible
02 Jun 7.5 18:29:40 28° E 18:29:40 28° E 18:32:44 10° NNE visible
02 Jun 9.6 20:04:03 15° W 20:04:03 15° W 20:05:19 10° WNW visible
03 Jun 9.7 05:03:47 10° E 05:05:37 13° ESE 05:07:27 10° SE visible
03 Jun 7.0 06:35:02 10° N 06:38:41 45° W 06:42:21 10° SSW visible
03 Jun 8.3 18:05:25 14° E 18:05:27 14° E 18:07:26 10° NE visible
03 Jun 8.5 19:39:49 29° W 19:39:49 29° W 19:42:14 10° NW visible
04 Jun 6.7 06:10:50 10° NNE 06:14:37 87° ESE 06:18:26 10° S visible
04 Jun 7.0 19:15:33 59° NW 19:15:33 59° NW 19:18:35 10° NNW visible
